This is the latest recevied weather packets stored in our database for station/object DG4CB-13. If no packets are shown the sender has not sent any weather packets the latest 10 day(s).
| Time | Temp. | Humidity | Pressure | Rain* | Wind** | Luminosity | Snow |
|---|---|---|---|---|---|---|---|
| 1777894800 | 23.33° C | 41% | 1011.6 hPa | - | - | - | - |
| 1777894200 | 23.33° C | 42% | 1011.6 hPa | - | - | - | - |
| 1777893600 | 23.33° C | 41% | 1011.7 hPa | - | - | - | - |
| 1777893000 | 23.89° C | 41% | 1011.8 hPa | - | - | - | - |
| 1777892400 | 23.89° C | 42% | 1011.9 hPa | - | - | - | - |
| 1777891800 | 23.33° C | 43% | 1012 hPa | - | - | - | - |
| 1777891200 | 23.33° C | 42% | 1012.1 hPa | - | - | - | - |
| 1777890600 | 23.33° C | 42% | 1012.1 hPa | - | - | - | - |
| 1777890000 | 22.78° C | 46% | 1012 hPa | - | - | - | - |
| 1777889400 | 22.22° C | 47% | 1012.1 hPa | - | - | - | - |
| 1777888800 | 21.67° C | 47% | 1012.2 hPa | - | - | - | - |
| 1777888200 | 21.67° C | 47% | 1012.3 hPa | - | - | - | - |
| 1777887600 | 21.67° C | 48% | 1012.4 hPa | - | - | - | - |
| 1777887000 | 21.11° C | 49% | 1012.5 hPa | - | - | - | - |
| 1777886400 | 21.11° C | 49% | 1012.6 hPa | - | - | - | - |
| 1777885800 | 20.56° C | 50% | 1012.7 hPa | - | - | - | - |
| 1777885200 | 20° C | 50% | 1012.6 hPa | - | - | - | - |
| 1777884600 | 20° C | 51% | 1012.6 hPa | - | - | - | - |
| 1777884000 | 19.44° C | 52% | 1012.6 hPa | - | - | - | - |
| 1777883400 | 18.89° C | 52% | 1012.7 hPa | - | - | - | - |
| 1777882800 | 18.33° C | 53% | 1012.8 hPa | - | - | - | - |
| 1777882200 | 18.33° C | 53% | 1012.8 hPa | - | - | - | - |
| 1777881600 | 17.78° C | 54% | 1012.7 hPa | - | - | - | - |
| 1777881000 | 17.22° C | 56% | 1012.6 hPa | - | - | - | - |
| 1777880400 | 16.67° C | 59% | 1012.6 hPa | - | - | - | - |
* Rain since midnight (hover to see other rain measurements)
** Current wind speed in m/s (hover to see current wind gust speed)